Regional Weather Roundup
Issued by NWS

Home | Current Version | Previous Version | Text Only | Print | Product List | Glossary Off
Versions: 1 2 3 4 5 6 7 8 9 10 11 12 13 14 15 16 17 18 19 20 21 22 23 24 25 26 27 28 29 30 31 32 33 34 35 36 37 38 39 40 41 42 43 44 45 46 47 48 49 50

002
ASUS43 KOAX 251610
RWRNE

WEATHER ROUNDUP FOR NEBRASKA
NATIONAL WEATHER SERVICE OMAHA NE
1100 AM CDT MON SEP 25 2017

NOTES: SATELLITE DATA IS BEING USED TO AUGMENT CLOUD COVER ABOVE
       12000 FEET.
       "FAIR" INDICATES FEW OR NO CLOUDS BELOW 12,000 FEET WITH NO
       SIGNIFICANT WEATHER AND/OR OBSTRUCTIONS TO VISIBILITY.


NEZ001>004-019>022-054>056-251700-
NEBRASKA PANHANDLE

CITY           SKY/WX    TMP DP  RH WIND       PRES   REMARKS
SCOTTSBLUFF    CLOUDY    46  41  82 E3        30.14S
ALLIANCE       CLOUDY    45  42  89 NE8       30.13S
CHADRON        CLOUDY    45  40  82 NE3       30.15S
GORDON         CLOUDY    45  43  92 N6        30.13S
KIMBALL        CLOUDY    43  42  97 NE6       30.13S
SIDNEY         CLOUDY    45  43  93 N12       30.12R
$$

NEZ057>060-069>072-079>082-251700-
SOUTHWEST NEBRASKA

CITY           SKY/WX    TMP DP  RH WIND       PRES   REMARKS
NORTH PLATTE   CLOUDY    50  47  89 NE7       30.08F
IMPERIAL       CLOUDY    49  47  93 N14       30.07S
LEXINGTON      DRIZZLE   51  48  91 N13G24    30.05F
MCCOOK         CLOUDY    51  49  92 N17G24    30.02S
OGALLALA       CLOUDY    51  46  83 NE9       30.10S
$$

NEZ005>010-023>029-035>040-094-251700-
NORTH CENTRAL NEBRASKA

CITY           SKY/WX    TMP DP  RH WIND       PRES   REMARKS
VALENTINE      CLOUDY    50  45  83 N12       30.13R
AINSWORTH      CLOUDY    47  47  99 N13       30.12R
BROKEN BOW     LGT RAIN  50  48  93 N14       30.08R
O`NEILL        CLOUDY    49  49 100 N12       30.07R
ORD            LGT RAIN  51  48  89 N10       30.05S FOG
THEDFORD       CLOUDY    50  46  88 N8        30.11F
$$

NEZ041-046>049-061>064-073>077-083>087-251700-
SOUTH CENTRAL NEBRASKA

CITY           SKY/WX    TMP DP  RH WIND       PRES   REMARKS
GRAND ISLAND   CLOUDY    52  52 100 N16       30.02F
AURORA         LGT RAIN  53  53 100 N15       29.99S
HASTINGS       HVY RAIN  52  50  93 N15       30.01R FOG
HEBRON         RAIN      59  59  98 NW6       29.96F
HOLDREGE       LGT RAIN  50  49  95 N10G18    30.04R
KEARNEY        LGT RAIN  51  50  96 N21       30.00F
YORK           LGT RAIN  55  55 100 N14       29.98S
$$

NEZ011>018-030>034-042>045-251700-
NORTHEAST NEBRASKA

CITY           SKY/WX    TMP DP  RH WIND       PRES   REMARKS
NORFOLK        RAIN      53  53 100 NW8       30.01S
ALBION         LGT RAIN  53  52  95 N8        30.03R
BLAIR          LGT RAIN  63  62  97 CALM      29.97R
COLUMBUS       LGT RAIN  55  54  96 N9        30.00S
FREMONT        TSTM      60  60  98 W5        29.99R
TEKAMAH        LGT RAIN  60  58  92 NW6       29.97R
WAYNE          RAIN      55  52  91 N10       30.00S
$$

NEZ050>053-065>068-078-088>093-251700-
SOUTHEAST NEBRASKA

CITY           SKY/WX    TMP DP  RH WIND       PRES   REMARKS
LINCOLN        LGT RAIN  60  59  96 NE6       29.96F FOG
OMAHA EPPLEY   LGT RAIN  66  61  84 NE3       29.95S
BEATRICE       LGT RAIN  62  61  97 E5        29.96R
FALLS CITY     MOSUNNY   78  67  68 SW7       29.92S
NEBRASKA CITY  CLOUDY    69  68  98 N6        29.95S
PLATTSMOUTH    TSTM      62  62 100 NW5       29.96S VSB 1
$$

NEZ044-045-051>053-067-251700-
OMAHA AREA

CITY           SKY/WX    TMP DP  RH WIND       PRES   REMARKS
OMAHA EPPLEY   LGT RAIN  66  61  84 NE3       29.95S
BLAIR          LGT RAIN  63  62  97 CALM      29.97R
FREMONT        TSTM      60  60  98 W5        29.99R
MILLARD        RAIN      65  63  94 CALM      29.96S
OFFUTT AFB     LGT RAIN  63  61  94 W3        29.97R FOG
PLATTSMOUTH    TSTM      62  62 100 NW5       29.96S VSB 1
WAHOO          HVY RAIN  60  60  99 N3        29.97F
$$




USA.gov is the U.S. government's official web portal to all federal, state and local government web resources and services.